Weather History for KDAN - November, 2010

Change the Weather History Date:

Thursday, November 18, 2010

  Actual Average Record
Temperature  
Mean Temperature 45 °F 48 °F  
Max Temperature 57 °F 59 °F 80 °F (1953)
Min Temperature 32 °F 37 °F 19 °F (2014)
Degree Days  
Heating Degree Days 20 17  
Month to date heating degree days 293 247  
Since 1 July heating degree days 449 480  
Cooling Degree Days 0 0  
Month to date cooling degree days 0 0  
Year to date cooling degree days 1946 1436  
Moisture  
Dew Point 36 °F    
Average Humidity 72    
Maximum Humidity 96    
Minimum Humidity 47    
Precipitation  
Precipitation T in 0.11 in 0.92 in (1968)
Month to date precipitation 1.29 2.06  
Year to date precipitation 38.65 39.84  
Snow  
Snow 0.00 in - - ()
Month to date snowfall 0.0  
Since 1 July snowfall 0.0  
Since 1 September snowfall 0.0  
Snow Depth 0.00 in    
Sea Level Pressure  
Sea Level Pressure 30.19 in    
Wind  
Wind Speed 3 mph (WNW)    
Max Wind Speed 15 mph    
Max Gust Speed 20 mph    
Visibility 10 miles    
Events Rain    
T = Trace of Precipitation, MM = Missing Value Source: NWS Daily Summary

Daily Weather History Graph

Daily Weather History Graph

Search for Another Location

Airport or City:

Trip Planner

Search our weather history database for the weather conditions in past years. The results will help you decide how hot, cold, wet, or windy it might be!

Date:

Astronomy

Nov. 18, 2010 Rise Set
Actual Time 6:58 AM EST 5:06 PM EST
Civil Twilight 6:30 AM EST 5:34 PM EST
Nautical Twilight 5:59 AM EST 6:05 PM EST
Astronomical Twilight 5:28 AM EST 6:36 PM EST
Moon 3:02 PM EST (11/18) 3:56 AM EST (11/18)
Length of Visible Light 11h 04m
Length of Day
10h 08m
Waxing Gibbous, 91% of the Moon is Illuminated
Nov 18
Waxing Gibbous
Nov 21
Full
Nov 28
Last Quarter
Dec 5
New
Dec 13
First Quarter

Hourly Weather History & Observations

Time (EST) Temp. Windchill Dew Point Humidity Pressure Visibility Wind Dir Wind Speed Gust Speed Precip Events Conditions
12:53 AM 42.1 °F 39.2 °F 33.1 °F 70% 30.14 in 10.0 mi WNW 4.6 mph - N/A   Clear
1:53 AM 34.0 °F - 32.0 °F 92% 30.15 in 10.0 mi Calm Calm - N/A   Clear
2:53 AM 39.0 °F 34.0 °F 32.0 °F 76% 30.15 in 10.0 mi NW 6.9 mph - N/A   Clear
3:53 AM 33.1 °F 30.0 °F 30.9 °F 92% 30.16 in 10.0 mi SSW 3.5 mph - N/A   Clear
4:53 AM 33.1 °F 30.0 °F 30.9 °F 92% 30.16 in 10.0 mi SW 3.5 mph - N/A   Clear
5:53 AM 33.1 °F - 32.0 °F 96% 30.19 in 10.0 mi Calm Calm - N/A   Clear
6:53 AM 33.1 °F 30.0 °F 30.0 °F 89% 30.19 in 10.0 mi NNW 3.5 mph - N/A   Clear
7:53 AM 39.0 °F - 34.0 °F 82% 30.20 in 10.0 mi Calm Calm - N/A   Clear
8:53 AM 44.1 °F 41.5 °F 36.0 °F 73% 30.22 in 10.0 mi West 4.6 mph - N/A   Clear
9:53 AM 51.1 °F - 37.9 °F 61% 30.22 in 10.0 mi West 6.9 mph - N/A   Clear
10:53 AM 52.0 °F - 37.0 °F 57% 30.22 in 10.0 mi West 4.6 mph - N/A   Scattered Clouds
11:53 AM 55.9 °F - 36.0 °F 47% 30.19 in 10.0 mi WNW 4.6 mph - N/A   Clear
12:53 PM 55.9 °F - 35.1 °F 45% 30.18 in 10.0 mi NNW 13.8 mph - N/A   Overcast
1:53 PM 53.1 °F - 37.0 °F 55% 30.18 in 10.0 mi NNW 6.9 mph - 0.00 in Rain Light Rain
2:53 PM 54.0 °F - 37.9 °F 55% 30.16 in 10.0 mi NNW 6.9 mph - 0.00 in   Overcast
3:53 PM 53.1 °F - 39.0 °F 59% 30.16 in 10.0 mi NNW 4.6 mph - N/A   Scattered Clouds
4:53 PM 51.1 °F - 39.9 °F 66% 30.16 in 10.0 mi Calm Calm - N/A   Mostly Cloudy
5:53 PM 44.1 °F - 39.9 °F 85% 30.17 in 10.0 mi Calm Calm - N/A   Clear
6:53 PM 41.0 °F - 37.0 °F 86% 30.18 in 10.0 mi Calm Calm - N/A   Clear
7:53 PM 39.0 °F - 37.0 °F 93% 30.19 in 10.0 mi Calm Calm - N/A   Clear
8:53 PM 42.1 °F - 39.0 °F 89% 30.21 in 10.0 mi Calm Calm - N/A   Overcast
9:53 PM 43.0 °F - 39.9 °F 89% 30.23 in 10.0 mi Calm Calm - N/A   Overcast
10:53 PM 39.9 °F - 37.9 °F 93% 30.23 in 10.0 mi Calm Calm - N/A   Clear
11:53 PM 37.9 °F - 36.0 °F 93% 30.24 in 10.0 mi Calm Calm - N/A   Partly Cloudy